FW3092 Weather Reports


Display with metric or nautical units.
time (UTC)temp
F
wind
direction
speed
MPH
gust
MPH
rain 1hr
in
rain 24hr
in
rain mn
in
humidity
%
barometer
mb
20260906230041 68 264 0.0 4.0 0.00 0.00 0.00 66 961.2
20260906224540 69 228 0.0 4.0 0.00 0.00 0.00 64 961.2
20260906223040 70 267 1.0 3.0 0.00 0.00 0.00 63 961.1
20260906221544 70 327 0.0 3.0 0.00 0.00 0.00 62 961.1
20260906220115 70 305 0.0 4.0 0.00 0.00 0.00 60 961.0
20260906214541 71 288 1.0 5.0 0.00 0.00 0.00 62 960.9
20260906213047 70 307 1.0 5.0 0.00 0.00 0.00 62 961.1
20260906211540 70 13 0.0 6.0 0.00 0.00 0.00 61 961.0
20260906210055 70 302 2.0 4.0 0.00 0.00 0.00 61 961.1
20260906204536 71 273 1.0 9.0 0.00 0.00 0.00 60 960.9
20260906203038 73 92 2.0 9.0 0.00 0.00 0.00 58 960.8
20260906201535 72 280 2.0 6.0 0.00 0.00 0.00 60 960.8
20260906200045 73 338 2.0 9.0 0.00 0.00 0.00 58 960.7
20260906194538 73 312 1.0 9.0 0.00 0.00 0.00 61 960.7
20260906193033 73 296 2.0 5.0 0.00 0.00 0.00 61 960.7
20260906191532 72 203 2.0 6.0 0.00 0.00 0.00 60 960.8
20260906190034 72 178 2.0 8.0 0.00 0.00 0.00 62 960.7
20260906184533 71 79 1.0 5.0 0.00 0.00 0.00 61 960.7
20260906183037 72 305 3.0 10.0 0.00 0.00 0.00 59 960.7
20260906181537 71 83 2.0 6.0 0.00 0.00 0.00 63 960.7
20260906180038 71 67 1.0 4.0 0.00 0.00 0.00 65 960.8
20260906174537 71 202 2.0 8.0 0.00 0.00 0.00 63 960.7
20260906173027 70 76 3.0 7.0 0.00 0.00 0.00 66 960.9
20260906171527 72 323 0.0 4.0 0.00 0.00 0.00 64 960.9
20260906170026 73 167 1.0 4.0 0.00 0.00 0.00 63 961.1
20260906164538 73 136 2.0 8.0 0.00 0.00 0.00 62 961.0
20260906163032 73 155 2.0 10.0 0.00 0.00 0.00 64 961.1
20260906161520 72 78 2.0 4.0 0.00 0.00 0.00 66 961.2
20260906160017 71 123 2.0 7.0 0.00 0.00 0.00 68 961.3
20260906154519 70 115 3.0 8.0 0.00 0.00 0.00 68 961.1
20260906153013 69 121 2.0 6.0 0.00 0.00 0.00 72 961.0
20260906151507 68 217 2.0 5.0 0.00 0.00 0.00 78 960.9
20260906150014 67 40 2.0 9.0 0.00 0.00 0.00 79 961.0
20260906144619 66 116 1.0 4.0 0.00 0.00 0.00 82 960.9
20260906143055 64 348 3.0 7.0 0.00 0.00 0.00 84 960.9
20260906141549 62 282 2.0 9.0 0.00 0.00 0.00 86 960.8
20260906140046 61 341 1.0 6.0 0.00 0.00 0.00 88 960.9
20260906134544 60 40 1.0 5.0 0.00 0.00 0.00 91 960.9
20260906133039 58 255 0.0 6.0 0.00 0.00 0.00 91 960.8
20260906131540 58 77 2.0 9.0 0.00 0.00 0.00 91 960.8
20260906130045 58 163 0.0 4.0 0.00 0.00 0.00 92 960.8
20260906124538 58 5 1.0 6.0 0.00 0.00 0.00 92 960.5
20260906123037 58 95 2.0 5.0 0.00 0.00 0.00 91 960.5
20260906121534 58 73 1.0 3.0 0.00 0.00 0.00 91 960.3
20260906120036 58 95 1.0 6.0 0.00 0.00 0.00 92 960.2
20260906114536 58 96 0.0 4.0 0.00 0.00 0.00 92 960.1
20260906113028 58 329 0.0 2.0 0.00 0.00 0.00 92 959.9
20260906111526 57 329 0.0 2.0 0.00 0.00 0.00 91 959.9
20260906110032 57 331 1.0 5.0 0.00 0.00 0.00 91 959.7
20260906104523 57 5 0.0 2.0 0.00 0.00 0.00 91 959.6
20260906103020 57 5 0.0 3.0 0.00 0.00 0.00 91 959.5
20260906101519 57 355 0.0 2.0 0.00 0.00 0.00 91 959.4
20260906100018 57 355 1.0 3.0 0.00 0.00 0.00 91 959.2
20260906094527 57 360 0.0 2.0 0.00 0.00 0.00 91 959.0
20260906093015 57 5 0.0 3.0 0.00 0.00 0.00 91 958.9
20260906091513 57 5 1.0 4.0 0.00 0.00 0.00 91 958.7
20260906090013 57 304 1.0 3.0 0.00 0.00 0.00 91 958.6
20260906084514 57 313 0.0 3.0 0.00 0.00 0.00 91 958.6
20260906083010 57 308 0.0 3.0 0.00 0.00 0.00 91 958.3
20260906081528 57 279 2.0 4.0 0.00 0.00 0.00 91 958.1
20260906080007 57 295 1.0 5.0 0.00 0.00 0.00 91 958.1
20260906074507 57 286 0.0 3.0 0.00 0.00 0.00 91 958.3
20260906073005 57 287 0.0 2.0 0.00 0.00 0.00 91 958.2
20260906071505 58 287 1.0 4.0 0.00 0.00 0.00 91 958.3
20260906070004 58 278 1.0 4.0 0.00 0.00 0.00 91 958.2
20260906064503 58 277 1.0 6.0 0.00 0.00 0.00 91 958.2
20260906063002 58 254 2.0 4.0 0.00 0.00 0.00 91 958.3
20260906061601 58 284 1.0 4.0 0.00 0.00 0.00 91 958.4
20260906061501 58 284 1.0 4.0 0.00 0.00 0.00 91 958.3
20260906060100 57 298 1.0 4.0 0.00 0.00 0.00 91 958.4
20260906054558 58 271 1.0 4.0 0.00 0.00 0.00 91 958.6
20260906053106 58 281 2.0 4.0 0.00 0.00 0.00 91 958.6
20260906051557 58 284 1.0 3.0 0.00 0.00 0.00 91 958.5
20260906050115 58 269 2.0 4.0 0.00 0.00 0.00 91 958.6
20260906044557 58 269 2.0 4.0 0.00 0.00 0.00 90 958.4
20260906043056 58 283 1.0 4.0 0.00 0.00 0.00 90 958.8
20260906041553 58 281 1.0 3.0 0.00 0.00 0.00 90 958.5
20260906040105 58 273 2.0 4.0 0.00 0.00 0.00 90 958.5
20260906034600 58 274 0.0 3.0 0.00 0.00 0.00 89 958.5
20260906033049 59 265 0.0 4.0 0.00 0.00 0.00 89 958.4
20260906031551 59 296 1.0 4.0 0.00 0.00 0.00 89 958.3
20260906030047 59 271 0.0 2.0 0.00 0.00 0.00 89 958.3
20260906024546 59 270 0.0 3.0 0.00 0.00 0.00 88 958.2
20260906023050 60 355 0.0 2.0 0.00 0.00 0.00 88 958.2
20260906021557 60 355 0.0 2.0 0.00 0.00 0.00 88 958.2
20260906020054 61 11 0.0 1.0 0.00 0.00 0.00 87 958.2
20260906014552 61 5 0.0 3.0 0.00 0.00 0.00 87 958.1
20260906013044 61 314 0.0 2.0 0.00 0.00 0.00 86 957.9
20260906011542 62 314 0.0 2.0 0.00 0.00 0.00 86 958.0
20260906010042 62 355 0.0 7.0 0.00 0.00 0.00 86 957.9
20260906004540 63 317 0.0 4.0 0.00 0.00 0.00 86 957.8
20260906003044 63 289 0.0 3.0 0.00 0.00 0.00 85 957.7
20260906001539 63 336 0.0 2.0 0.00 0.00 0.00 85 957.6
20260906000038 64 97 0.0 3.0 0.00 0.00 0.00 84 957.5
20260905234537 65 303 1.0 5.0 0.00 0.00 0.00 83 957.5
20260905233041 65 43 0.0 3.0 0.00 0.00 0.00 82 957.5
20260905231536 66 327 0.0 4.0 0.00 0.00 0.00 81 957.6